• In Netherlands
  • List of Countries
  • For 7 days
  • Water Temperature
  • Satellite Maps
  • Weather Map
  • Weather Widgets
  • user-avatar
    Login

    Hourly Weather Hrazdan

    Today, 26 June, Monday

    Time Temperature Precipitation Wind Pressure Humidity
    00:00 +11°C° 0 mm 1 mps 614 mmHg 86%
    01:00 +10°C° 0 mm 1 mps 614 mmHg 86%
    02:00 +10°C° 0 mm 1 mps 614 mmHg 86%
    03:00 +10°C° 0 mm 1 mps 613 mmHg 88%
    04:00 +11°C° 0 mm 1 mps 614 mmHg 85%
    05:00 +12°C° 0 mm 1 mps 615 mmHg 83%
    06:00 +13°C° 0 mm 1 mps 615 mmHg 80%
    07:00 +15°C° 0 mm 1 mps 616 mmHg 71%
    08:00 +19°C° 0 mm 1 mps 617 mmHg 62%
    09:00 +21°C° 0 mm 1 mps 618 mmHg 53%
    10:00 +22°C° 0 mm 1 mps 618 mmHg 50%
    11:00 +23°C° 0 mm 2 mps 618 mmHg 47%
    12:00 +24°C° 0 mm 2 mps 618 mmHg 43%
    13:00 +24°C° 0 mm 2 mps 618 mmHg 44%
    14:00 +24°C° 0 mm 2 mps 618 mmHg 45%
    15:00 +25°C° 0 mm 2 mps 618 mmHg 46%
    16:00 +24°C° 0 mm 2 mps 617 mmHg 51%
    17:00 +23°C° 0 mm 2 mps 617 mmHg 56%
    18:00 +21°C° 0 mm 2 mps 617 mmHg 61%
    19:00 +18°C° 0 mm 2 mps 616 mmHg 70%
    20:00 +16°C° 0 mm 2 mps 616 mmHg 79%
    21:00 +14°C° 0 mm 2 mps 615 mmHg 88%
    22:00 +14°C° 0 mm 1 mps 615 mmHg 89%
    23:00 +14°C° 0 mm 1 mps 615 mmHg 90%

    Tomorrow, 27 June, Tuesday

    Time Temperature Precipitation Wind Pressure Humidity
    00:00 +13°C° 0 mm 1 mps 615 mmHg 91%
    01:00 +13°C° 0 mm 1 mps 615 mmHg 91%
    02:00 +12°C° 0 mm 1 mps 615 mmHg 92%
    03:00 +12°C° 0 mm 1 mps 615 mmHg 92%
    04:00 +13°C° 0 mm 1 mps 615 mmHg 90%
    05:00 +13°C° 0 mm 1 mps 615 mmHg 88%
    06:00 +14°C° 0 mm 1 mps 616 mmHg 85%
    07:00 +18°C° 0 mm 1 mps 617 mmHg 73%
    08:00 +21°C° 0 mm 1 mps 617 mmHg 61%
    09:00 +23°C° 0 mm 1 mps 618 mmHg 49%
    10:00 +25°C° 0 mm 1 mps 618 mmHg 45%
    11:00 +26°C° 0 mm 1 mps 618 mmHg 40%
    12:00 +28°C° 0 mm 2 mps 618 mmHg 36%
    13:00 +28°C° 0 mm 2 mps 618 mmHg 35%
    14:00 +28°C° 0 mm 2 mps 618 mmHg 34%
    15:00 +29°C° 0 mm 2 mps 617 mmHg 34%
    16:00 +27°C° 0.3 mm 1 mps 617 mmHg 43%
    17:00 +26°C° 0.3 mm 1 mps 616 mmHg 52%
    18:00 +24°C° 0.3 mm 1 mps 615 mmHg 61%
    19:00 +22°C° 0.3 mm 1 mps 615 mmHg 68%
    20:00 +19°C° 0.3 mm 1 mps 614 mmHg 76%
    21:00 +15°C° 0.3 mm 1 mps 613 mmHg 83%
    22:00 +15°C° 0 mm 1 mps 613 mmHg 84%
    23:00 +14°C° 0 mm 1 mps 613 mmHg 86%

    Day after tomorrow, 28 June, Wednesday

    Time Temperature Precipitation Wind Pressure Humidity
    00:00 +14°C° 0 mm 1 mps 613 mmHg 87%
    01:00 +14°C° 0 mm 1 mps 613 mmHg 88%
    02:00 +14°C° 0 mm 1 mps 613 mmHg 88%
    03:00 +14°C° 0 mm 1 mps 613 mmHg 88%
    04:00 +15°C° 0 mm 1 mps 613 mmHg 86%
    05:00 +15°C° 0 mm 1 mps 614 mmHg 84%
    06:00 +16°C° 0 mm 1 mps 614 mmHg 82%
    07:00 +20°C° 0 mm 1 mps 615 mmHg 70%
    08:00 +23°C° 0 mm 1 mps 616 mmHg 58%
    09:00 +25°C° 0 mm 1 mps 617 mmHg 46%
    10:00 +27°C° 0 mm 1 mps 617 mmHg 41%
    11:00 +28°C° 0 mm 1 mps 617 mmHg 37%
    12:00 +29°C° 0 mm 1 mps 617 mmHg 33%
    13:00 +29°C° 0.2 mm 1 mps 617 mmHg 36%
    14:00 +29°C° 0.2 mm 1 mps 616 mmHg 38%
    15:00 +29°C° 0.2 mm 1 mps 616 mmHg 40%
    16:00 +27°C° 0.5 mm 2 mps 615 mmHg 47%
    17:00 +26°C° 0.5 mm 2 mps 614 mmHg 54%
    18:00 +24°C° 0.5 mm 2 mps 614 mmHg 61%
    19:00 +21°C° 0.2 mm 2 mps 613 mmHg 68%
    20:00 +18°C° 0.2 mm 2 mps 613 mmHg 75%
    21:00 +16°C° 0.2 mm 2 mps 613 mmHg 82%
    22:00 +15°C° 0.1 mm 1 mps 613 mmHg 83%
    23:00 +15°C° 0.1 mm 1 mps 612 mmHg 83%

    29 June, Thursday

    Time Temperature Precipitation Wind Pressure Humidity
    00:00 +14°C° 0.1 mm 1 mps 612 mmHg 84%
    01:00 +14°C° 0.2 mm 1 mps 612 mmHg 85%
    02:00 +13°C° 0.2 mm 1 mps 612 mmHg 86%
    03:00 +13°C° 0.2 mm 1 mps 612 mmHg 87%
    04:00 +14°C° 0.3 mm 1 mps 612 mmHg 86%
    05:00 +15°C° 0.3 mm 1 mps 613 mmHg 85%
    06:00 +16°C° 0.3 mm 1 mps 613 mmHg 84%
    07:00 +19°C° 0.2 mm 1 mps 614 mmHg 76%
    08:00 +21°C° 0.2 mm 1 mps 615 mmHg 67%
    09:00 +23°C° 0.2 mm 1 mps 615 mmHg 58%
    10:00 +24°C° 0.4 mm 1 mps 616 mmHg 54%
    11:00 +26°C° 0.4 mm 1 mps 616 mmHg 50%
    12:00 +27°C° 0.4 mm 1 mps 616 mmHg 46%
    13:00 +27°C° 0.3 mm 1 mps 616 mmHg 45%
    14:00 +27°C° 0.3 mm 2 mps 615 mmHg 44%
    15:00 +27°C° 0.3 mm 2 mps 615 mmHg 43%
    16:00 +26°C° 0.4 mm 2 mps 614 mmHg 48%
    17:00 +25°C° 0.4 mm 2 mps 614 mmHg 53%
    18:00 +23°C° 0.4 mm 2 mps 614 mmHg 58%
    19:00 +20°C° 0.4 mm 2 mps 613 mmHg 66%
    20:00 +17°C° 0.4 mm 2 mps 613 mmHg 75%
    21:00 +15°C° 0.4 mm 2 mps 612 mmHg 84%
    22:00 +14°C° 0.3 mm 1 mps 612 mmHg 85%
    23:00 +14°C° 0.3 mm 1 mps 612 mmHg 85%

    30 June, Friday

    Time Temperature Precipitation Wind Pressure Humidity
    00:00 +13°C° 0.3 mm 1 mps 612 mmHg 86%
    01:00 +13°C° 0.2 mm 1 mps 612 mmHg 87%
    02:00 +12°C° 0.2 mm 1 mps 612 mmHg 87%
    03:00 +12°C° 0.2 mm 1 mps 612 mmHg 87%
    04:00 +13°C° 0.2 mm 1 mps 612 mmHg 85%
    05:00 +13°C° 0.2 mm 1 mps 612 mmHg 82%
    06:00 +14°C° 0.2 mm 1 mps 613 mmHg 79%
    07:00 +16°C° 0.1 mm 1 mps 614 mmHg 70%
    08:00 +19°C° 0.1 mm 1 mps 614 mmHg 61%
    09:00 +21°C° 0.1 mm 1 mps 615 mmHg 52%
    10:00 +21°C° 0.1 mm 2 mps 615 mmHg 48%
    11:00 +24°C° 0.1 mm 2 mps 615 mmHg 43%
    12:00 +25°C° 0.1 mm 2 mps 615 mmHg 39%
    13:00 +25°C° 0.2 mm 2 mps 615 mmHg 40%
    14:00 +25°C° 0.2 mm 2 mps 615 mmHg 40%
    15:00 +25°C° 0.2 mm 3 mps 615 mmHg 41%
    16:00 +24°C° 0.2 mm 3 mps 614 mmHg 44%
    17:00 +21°C° 0.2 mm 3 mps 614 mmHg 48%
    18:00 +20°C° 0.2 mm 3 mps 614 mmHg 52%
    19:00 +18°C° 0.2 mm 2 mps 614 mmHg 58%
    20:00 +16°C° 0.2 mm 2 mps 613 mmHg 65%
    21:00 +13°C° 0.2 mm 2 mps 613 mmHg 71%
    22:00 +13°C° 0 mm 2 mps 613 mmHg 71%
    23:00 +12°C° 0 mm 2 mps 613 mmHg 70%

    1 July, Saturday

    Time Temperature Precipitation Wind Pressure Humidity
    00:00 +12°C° 0 mm 2 mps 613 mmHg 70%
    01:00 +12°C° 0 mm 2 mps 613 mmHg 70%
    02:00 +10°C° 0 mm 2 mps 613 mmHg 71%
    03:00 +10°C° 0 mm 2 mps 613 mmHg 71%
    04:00 +12°C° 0 mm 2 mps 613 mmHg 70%
    05:00 +13°C° 0 mm 1 mps 614 mmHg 69%
    06:00 +13°C° 0 mm 1 mps 614 mmHg 67%
    07:00 +16°C° 0 mm 2 mps 615 mmHg 59%
    08:00 +18°C° 0 mm 2 mps 616 mmHg 50%
    09:00 +20°C° 0 mm 2 mps 617 mmHg 42%
    10:00 +23°C° 0 mm 2 mps 617 mmHg 39%
    11:00 +24°C° 0 mm 2 mps 617 mmHg 36%
    12:00 +25°C° 0 mm 2 mps 617 mmHg 34%
    13:00 +25°C° 0 mm 3 mps 617 mmHg 34%
    14:00 +26°C° 0 mm 3 mps 617 mmHg 35%
    15:00 +26°C° 0 mm 3 mps 617 mmHg 35%
    16:00 +25°C° 0.1 mm 3 mps 616 mmHg 39%
    17:00 +24°C° 0.1 mm 2 mps 616 mmHg 44%
    18:00 +23°C° 0.1 mm 2 mps 616 mmHg 48%
    19:00 +19°C° 0.1 mm 2 mps 615 mmHg 57%
    20:00 +17°C° 0.1 mm 2 mps 615 mmHg 66%
    21:00 +14°C° 0.1 mm 2 mps 614 mmHg 75%
    22:00 +13°C° 0 mm 1 mps 614 mmHg 75%
    23:00 +13°C° 0 mm 1 mps 614 mmHg 76%
    Show more